STARLINK-32227, 60361

Orbit data source: Space-Track

STARLINK-32227, 60361 is a payload satellite owned by SpaceX/Seattle (US) in LEO that was launched on Sun, 04 Aug 2024 UTC via an FALCON 9 launch vehicle from the Air Force Western Test Range (AFWTR). Payload-class satellites include a variety of spacecraft equipped with specific instruments for various scientific and technological missions. These include communications satellites like Starlink; space stations such as the ISS; scientific satellites like the Hubble; Earth observation satellites from companies like Planet Labs, Umbra, and HawkEye 360; GPS; miniature CubeSats for education and research; and military/defense satellites.

Loading next visibility...
Identifier
60361, 2024-138G
Orbit
LEO
Last TLE update
13 hours ago
Origin
Manufacturer
SpaceX/Seattle
Mission
Operational Commercial Communications
Bus & Motor
STARLINK V2M, Unknown motor
Mass
730 kg wet, ~700 kg dry
Launch date (UTC)
2024-08-04 (11 months ago)
Launch vehicle
FALCON 9
Launch site
Air Force Western Test Range (AFWTR)
Object type
Payload
Rocket body
Debris
Shape & HBR
Box + 2 Pan, 29 m
Radar Cross Section
33.884 m², Large (>1 m²)

Expand to show TLE details & history

TLE from 13 hours ago
0 STARLINK-32227
1 60361U 24138G   25181.89935479 -.00000626  00000-0 -90163-5 0  9995
2 60361  53.1605  39.4018 0001062  88.1905 271.9217 15.30195384 52075
Epoch: 2025-06-30T21:35Z
TLE epoch observation values (Epoch: 2025-06-30T21:35:04.253Z)
Latitude
-0.00007°
Longitude
156.43148°
Altitude
476.104 km
Speed
7.629 km/s
True Right ascension
02h 37m 36s
True Declination
0° 00' 00"
Sunlit
Object was in daylight at epoch
Visualization orbit readout
Latitude
51.28393°
Longitude
-137.71672°
Altitude
480.635 km
Speed
7.632 km/s
Apparent Right ascension
08h 39m 51s
Apparent Declination
8° 27' 11"
Sunlit
Object is in daylight
Visualization observer readout
Local Sidereal Time
22:05:56
Azimuth
27.291° NE
Elevation
-37.694°
Doppler factor
1
Orbital elements
Apogee altitude
476.213 km
Perigee altitude
474.757 km
Semi-major axis
6,853.622 km
Eccentricity
0.00011
Inclination
53.1605°
RAAN
39.4018°
Arg. of periapsis
88.1905°
True anomaly
Unknown
Mean anomaly
271.9217°
Eccentric anomaly
Unknown
Mean motion
3.82528 °/min
Orbital period
94.11 mins
BSTAR
-0.0000090163
Loading maneuver chart data...
Loading SW <> Apogee altitude chart data...
Loading historical data...
Loading historical data...
Loading historical data...
Loading historical data...
Loading historical data...
Loading historical data...
Loading historical data...

STARLINK-32227 Visibility forecast

Observer location: undefined°, undefined°

Span
Click to sort rows by Start time (UTC) header in descending order
Start Az.
Max El. time (UTC)
Max El. Az.
Max El.
End time (UTC)
End Az.
5 mins2025-07-01 16:33:29.115Z193.099° SSW2025-07-01 16:36:29.115Z116.843° SE28.772°2025-07-01 16:38:29.115Z74.04° E
4 mins2025-07-01 18:12:29.115Z287.308° WNW2025-07-01 18:13:29.115Z312.863° NW26.221°2025-07-01 18:16:29.115Z26.548° NE
4 mins2025-07-01 23:09:29.115Z347.933° N2025-07-01 23:10:29.115Z15.651° NNE28.177°2025-07-01 23:13:29.115Z91.573° ESE
4 mins2025-07-02 00:47:29.115Z265.63° W2025-07-02 00:48:29.115Z237.853° WSW26.571°2025-07-02 00:51:29.115Z169.883° S
|